DELTA 1 DEB, 42586

Orbit data source: Space-Track

DELTA 1 DEB, 42586 is space debris in SSO originally from a launch on Tue, 06 Nov 1973 UTC launched from the Air Force Western Test Range (AFWTR). Debris objects in space refer to the collection of defunct objects orbiting the Earth. Examples of debris include non-operational satellites, rocket bodies, and fragments generated from explosions, collisions, or faulty payload assembly.

Loading next visibility...
Identifier
42586, 1973-086JA
Orbit
SSO
Country
Flag of USUS
Related business
Manufacturer
Unknown
Mission
Spacecraft
Bus & Motor
Unknown
Mass
Unknown
Launch date (UTC)
1973-11-06 (53 years ago)
Launch vehicle
Unknown
Launch site
Air Force Western Test Range (AFWTR)
Object type
Payload
Rocket body
Debris
Shape & HBR
Unknown shape, 0.1 m
Radar Cross Section
Medium (>0.1 m² and <1 m²)

Expand to show TLE details & history
Last TLE update: 5 days ago

TLE from 5 days ago
0 DELTA 1 DEB
1 42586U 73086JA  26260.29491119 -.00000026  00000-0  16096-3 0  9995
2 42586 102.3725 284.0396 0030915 352.7755  19.1297 12.35503035578254
Epoch: 2026-09-17T07:04Z
TLE epoch observation values (Epoch: 2026-09-17T07:04:40.326Z)
Latitude
11.70039°
Longitude
179.04632°
Altitude
1,504.422 km
Speed
7.124 km/s
True Right ascension
18h 45m 47s
True Declination
11° 38' 19"
Sunlit
Object was in daylight at epoch
Visualization orbit readout
Latitude
Unknown
Longitude
Unknown
Altitude
Unknown
Speed
Unknown
Apparent Right ascension
Unknown
Apparent Declination
Unknown
Sunlit
N/A
Visualization observer readout
Local Sidereal Time
13:48:55
Azimuth
Unknown
Elevation
Unknown
Doppler factor
Unknown
Orbital elements
Apogee altitude
1,547.754 km
Perigee altitude
1,498.9 km
Semi-major axis
7,901.464 km
Eccentricity
0.00309
Inclination
102.3725°
RAAN
284.0396°
Arg. of periapsis
352.7755°
True anomaly
19.24622°
Mean anomaly
19.1297°
Eccentric anomaly
19.18792°
Mean motion
3.09017 °/min
Orbital period
116.5 mins
BSTAR
0.00016096
Loading maneuver chart data...
Computing Atmospheric mass density...
Loading historical data...
Loading historical data...
Loading historical data...
Loading historical data...
Loading historical data...
Loading historical data...
Loading historical data...

Documentation

Showing up to 5 results
|